Time,TemperatureF,DewpointF,PressureIn,WindDirection,WindDirectionDegrees,WindSpeedMPH,WindSpeedGustMPH,Humidity,HourlyPrecipIn,Conditions,Clouds,dailyrainin,SoftwareType,DateUTC
2013-02-04 00:03:00,15.1,10.9,30.08,WNW,284,2.0,7.0,83,0.00,,,0.00,meteohub,2013-02-04 06:03:00,
2013-02-04 00:08:00,15.1,10.9,30.08,West,262,2.0,7.0,83,0.00,,,0.00,meteohub,2013-02-04 06:08:00,
2013-02-04 00:13:00,15.1,11.1,30.08,West,270,2.0,6.0,84,0.00,,,0.00,meteohub,2013-02-04 06:13:00,
2013-02-04 00:18:00,15.1,11.1,30.08,West,266,3.0,6.0,84,0.00,,,0.00,meteohub,2013-02-04 06:18:00,
2013-02-04 00:23:00,15.1,11.5,30.08,WSW,248,3.0,5.0,85,0.00,,,0.00,meteohub,2013-02-04 06:23:00,
2013-02-04 00:28:00,15.1,11.5,30.08,WSW,242,2.0,3.0,85,0.00,,,0.00,meteohub,2013-02-04 06:28:00,
2013-02-04 00:33:00,15.1,11.7,30.08,West,269,1.0,4.0,86,0.00,,,0.00,meteohub,2013-02-04 06:33:00,
2013-02-04 00:38:00,15.1,11.7,30.08,West,281,1.0,4.0,86,0.00,,,0.00,meteohub,2013-02-04 06:38:00,
2013-02-04 00:43:00,15.1,11.7,30.08,WSW,248,2.0,4.0,86,0.00,,,0.00,meteohub,2013-02-04 06:43:00,
2013-02-04 00:48:00,15.1,11.8,30.08,WSW,245,5.0,5.0,87,0.00,,,0.00,meteohub,2013-02-04 06:48:00,
2013-02-04 00:54:00,15.1,11.8,30.08,West,276,2.0,4.0,87,0.00,,,0.00,meteohub,2013-02-04 06:54:00,
2013-02-04 00:59:00,15.1,11.8,30.08,West,269,0.0,5.0,87,0.00,,,0.00,meteohub,2013-02-04 06:59:00,
2013-02-04 01:04:00,15.1,11.8,30.08,WSW,256,2.0,5.0,87,0.00,,,0.00,meteohub,2013-02-04 07:04:00,
2013-02-04 01:09:00,15.1,11.8,30.08,WNW,294,2.0,6.0,87,0.00,,,0.00,meteohub,2013-02-04 07:09:00,
2013-02-04 01:14:00,15.1,11.8,30.08,West,269,1.0,6.0,87,0.00,,,0.00,meteohub,2013-02-04 07:14:00,
2013-02-04 01:19:00,15.3,12.0,30.08,WNW,287,2.0,6.0,87,0.00,,,0.00,meteohub,2013-02-04 07:19:00,
2013-02-04 01:24:00,15.3,12.0,30.08,SW,218,5.0,5.0,87,0.00,,,0.00,meteohub,2013-02-04 07:24:00,
2013-02-04 01:29:00,15.3,12.0,30.08,WSW,246,5.0,6.0,87,0.00,,,0.00,meteohub,2013-02-04 07:29:00,
2013-02-04 01:34:00,15.3,12.0,30.07,WSW,251,3.0,7.0,87,0.00,,,0.00,meteohub,2013-02-04 07:34:00,
2013-02-04 01:39:00,15.3,12.0,30.08,WSW,256,2.0,7.0,87,0.00,,,0.00,meteohub,2013-02-04 07:39:00,
2013-02-04 01:44:00,15.3,12.0,30.08,WNW,283,2.0,7.0,87,0.00,,,0.00,meteohub,2013-02-04 07:44:00,
2013-02-04 01:49:00,15.4,12.2,30.08,WSW,240,4.0,6.0,87,0.00,,,0.00,meteohub,2013-02-04 07:49:00,
2013-02-04 01:54:00,15.4,12.0,30.08,WSW,249,5.0,6.0,86,0.00,,,0.00,meteohub,2013-02-04 07:54:00,
2013-02-04 01:59:00,15.4,12.0,30.08,SW,229,3.0,6.0,86,0.00,,,0.00,meteohub,2013-02-04 07:59:00,
2013-02-04 02:04:00,15.4,11.7,30.08,West,280,2.0,6.0,85,0.00,,,0.00,meteohub,2013-02-04 08:04:00,
2013-02-04 02:09:00,15.4,11.7,30.08,West,278,1.0,5.0,85,0.00,,,0.00,meteohub,2013-02-04 08:09:00,
2013-02-04 02:14:00,15.4,11.7,30.08,West,269,4.0,5.0,85,0.00,,,0.00,meteohub,2013-02-04 08:14:00,
2013-02-04 02:19:00,15.4,11.5,30.08,WSW,255,1.0,5.0,84,0.00,,,0.00,meteohub,2013-02-04 08:19:00,
2013-02-04 02:24:00,15.4,11.5,30.08,West,264,1.0,6.0,84,0.00,,,0.00,meteohub,2013-02-04 08:24:00,
2013-02-04 02:29:00,15.4,11.5,30.08,WSW,257,1.0,6.0,84,0.00,,,0.00,meteohub,2013-02-04 08:29:00,
2013-02-04 02:34:00,15.4,11.7,30.07,West,270,0.0,6.0,85,0.00,,,0.00,meteohub,2013-02-04 08:34:00,
2013-02-04 02:39:00,15.4,11.7,30.07,West,262,0.0,4.0,85,0.00,,,0.00,meteohub,2013-02-04 08:39:00,
2013-02-04 02:44:00,15.4,11.7,30.08,WSW,250,3.0,4.0,85,0.00,,,0.00,meteohub,2013-02-04 08:44:00,
2013-02-04 02:49:00,15.4,11.7,30.07,West,269,0.0,4.0,85,0.00,,,0.00,meteohub,2013-02-04 08:49:00,
2013-02-04 02:54:00,15.4,11.7,30.07,WSW,255,1.0,4.0,85,0.00,,,0.00,meteohub,2013-02-04 08:54:00,
2013-02-04 02:59:00,15.4,11.7,30.07,WSW,252,1.0,4.0,85,0.00,,,0.00,meteohub,2013-02-04 08:59:00,
2013-02-04 03:05:00,15.4,11.7,30.06,WSW,255,2.0,2.0,85,0.00,,,0.00,meteohub,2013-02-04 09:05:00,
2013-02-04 03:10:00,15.4,11.7,30.06,West,260,2.0,3.0,85,0.00,,,0.00,meteohub,2013-02-04 09:10:00,
2013-02-04 03:15:00,14.5,10.9,30.06,WSW,249,1.0,3.0,85,0.00,,,0.00,meteohub,2013-02-04 09:15:00,
2013-02-04 03:20:00,14.5,10.9,30.06,WSW,249,1.0,3.0,85,0.00,,,0.00,meteohub,2013-02-04 09:20:00,
2013-02-04 07:54:00,15.6,13.3,30.04,North,-999,-999.0,-999.0,90,-99.99,,,0.00,meteohub,2013-02-04 13:54:00,
2013-02-04 07:59:00,15.8,13.5,30.04,ESE,122,0.0,-999.0,90,0.00,,,0.00,meteohub,2013-02-04 13:59:00,
2013-02-04 08:04:00,16.0,13.6,30.04,SE,128,1.0,-999.0,90,0.00,,,0.00,meteohub,2013-02-04 14:04:00,
2013-02-04 08:09:00,16.0,13.6,30.04,East,84,3.0,4.0,90,0.00,,,0.00,meteohub,2013-02-04 14:09:00,
2013-02-04 08:14:00,16.2,13.8,30.04,East,92,2.0,4.0,90,0.00,,,0.00,meteohub,2013-02-04 14:14:00,
2013-02-04 08:19:00,16.2,13.8,30.04,ESE,110,4.0,4.0,90,0.00,,,0.00,meteohub,2013-02-04 14:19:00,
2013-02-04 08:24:00,16.2,13.8,30.04,ESE,102,2.0,4.0,90,0.00,,,0.00,meteohub,2013-02-04 14:24:00,
2013-02-04 08:29:00,16.2,13.8,30.04,East,96,1.0,4.0,90,0.00,,,0.00,meteohub,2013-02-04 14:29:00,
2013-02-04 08:34:00,16.3,14.0,30.04,East,99,1.0,4.0,90,0.00,,,0.00,meteohub,2013-02-04 14:34:00,
2013-02-04 08:39:00,16.2,13.5,30.04,East,99,3.0,4.0,89,0.00,,,0.00,meteohub,2013-02-04 14:39:00,
2013-02-04 08:44:00,16.2,13.5,30.04,ESE,104,1.0,4.0,89,0.00,,,0.00,meteohub,2013-02-04 14:44:00,
2013-02-04 08:49:00,16.2,13.5,30.04,ESE,106,5.0,5.0,89,0.00,,,0.00,meteohub,2013-02-04 14:49:00,
2013-02-04 08:54:00,16.3,13.6,30.04,ESE,118,2.0,5.0,89,0.00,,,0.00,meteohub,2013-02-04 14:54:00,
2013-02-04 08:59:00,16.3,13.6,30.04,ESE,104,2.0,5.0,89,0.00,,,0.00,meteohub,2013-02-04 14:59:00,
2013-02-04 09:04:00,16.5,13.8,30.04,ESE,114,2.0,5.0,89,0.00,,,0.00,meteohub,2013-02-04 15:04:00,
2013-02-04 09:09:00,16.5,13.8,30.04,East,98,2.0,5.0,89,0.00,,,0.00,meteohub,2013-02-04 15:09:00,
2013-02-04 09:14:00,16.9,14.2,30.04,ESE,109,2.0,5.0,89,0.00,,,0.00,meteohub,2013-02-04 15:14:00,
2013-02-04 09:19:00,16.9,14.2,30.04,ESE,107,1.0,5.0,89,0.00,,,0.00,meteohub,2013-02-04 15:19:00,
2013-02-04 09:24:00,17.1,14.4,30.03,ESE,110,3.0,4.0,89,0.00,,,0.00,meteohub,2013-02-04 15:24:00,
2013-02-04 09:29:00,17.2,14.5,30.03,SE,133,4.0,4.0,89,0.00,,,0.00,meteohub,2013-02-04 15:29:00,
2013-02-04 09:34:00,17.2,14.4,30.03,East,99,2.0,4.0,88,0.00,,,0.00,meteohub,2013-02-04 15:34:00,
2013-02-04 09:39:00,17.2,14.4,30.03,ESE,108,1.0,6.0,88,0.00,,,0.00,meteohub,2013-02-04 15:39:00,
2013-02-04 09:44:00,17.4,14.7,30.04,ESE,110,0.0,6.0,89,0.00,,,0.00,meteohub,2013-02-04 15:44:00,
2013-02-04 09:49:00,17.6,14.9,30.04,East,92,0.0,6.0,89,0.00,,,0.00,meteohub,2013-02-04 15:49:00,
2013-02-04 09:55:00,17.8,15.1,30.04,ESE,112,2.0,6.0,89,0.00,,,0.00,meteohub,2013-02-04 15:55:00,
2013-02-04 10:00:00,17.8,14.9,30.03,East,84,3.0,3.0,88,0.00,,,0.00,meteohub,2013-02-04 16:00:00,
2013-02-04 10:05:00,17.8,14.9,30.03,East,100,3.0,5.0,88,0.00,,,0.00,meteohub,2013-02-04 16:05:00,
2013-02-04 10:10:00,17.8,15.1,30.03,SSE,148,3.0,7.0,89,0.00,,,0.00,meteohub,2013-02-04 16:10:00,
2013-02-04 10:15:00,18.0,15.3,30.03,SSE,150,4.0,7.0,89,0.00,,,0.00,meteohub,2013-02-04 16:15:00,
2013-02-04 10:20:00,18.0,15.1,30.02,ESE,123,1.0,7.0,88,0.00,,,0.00,meteohub,2013-02-04 16:20:00,
2013-02-04 10:25:00,18.1,15.3,30.02,ESE,103,3.0,7.0,88,0.00,,,0.00,meteohub,2013-02-04 16:25:00,
2013-02-04 10:30:00,18.3,15.4,30.03,SE,129,3.0,7.0,88,0.00,,,0.00,meteohub,2013-02-04 16:30:00,
2013-02-04 10:35:00,18.3,15.1,30.03,ESE,116,5.0,5.0,87,0.00,,,0.00,meteohub,2013-02-04 16:35:00,
2013-02-04 10:40:00,18.3,15.1,30.02,East,89,4.0,7.0,87,0.00,,,0.00,meteohub,2013-02-04 16:40:00,
2013-02-04 10:45:00,18.5,15.3,30.02,SE,146,3.0,7.0,87,0.00,,,0.00,meteohub,2013-02-04 16:45:00,
2013-02-04 10:50:00,18.5,15.3,30.02,ESE,102,3.0,7.0,87,0.00,,,0.00,meteohub,2013-02-04 16:50:00,
2013-02-04 10:55:00,18.7,15.4,30.01,SE,141,3.0,6.0,87,0.00,,,0.00,meteohub,2013-02-04 16:55:00,
2013-02-04 11:00:00,18.9,15.4,30.01,ESE,123,4.0,6.0,86,0.00,,,0.00,meteohub,2013-02-04 17:00:00,
2013-02-04 11:05:00,18.9,15.4,30.01,East,99,4.0,6.0,86,0.00,,,0.00,meteohub,2013-02-04 17:05:00,
2013-02-04 11:10:00,18.9,15.4,30.00,ESE,113,3.0,6.0,86,0.00,,,0.00,meteohub,2013-02-04 17:10:00,
2013-02-04 11:15:00,19.0,15.6,30.00,SSE,150,2.0,8.0,86,0.00,,,0.00,meteohub,2013-02-04 17:15:00,
2013-02-04 11:20:00,19.2,16.0,29.99,ESE,119,7.0,8.0,87,0.00,,,0.00,meteohub,2013-02-04 17:20:00,
2013-02-04 11:25:00,19.4,16.0,29.99,ESE,111,4.0,8.0,86,0.00,,,0.00,meteohub,2013-02-04 17:25:00,
2013-02-04 11:30:00,19.8,16.3,29.99,ESE,102,3.0,7.0,86,0.00,,,0.00,meteohub,2013-02-04 17:30:00,
2013-02-04 11:35:00,19.8,16.0,29.99,SE,127,5.0,7.0,85,0.00,,,0.00,meteohub,2013-02-04 17:35:00,
2013-02-04 11:40:00,19.9,16.5,29.99,East,93,2.0,6.0,86,0.00,,,0.00,meteohub,2013-02-04 17:40:00,
2013-02-04 11:45:00,19.9,16.2,29.99,ESE,108,3.0,7.0,85,0.00,,,0.00,meteohub,2013-02-04 17:45:00,
2013-02-04 11:50:00,20.1,16.3,29.98,ENE,65,2.0,7.0,85,0.00,,,0.00,meteohub,2013-02-04 17:50:00,
2013-02-04 11:55:00,20.3,16.5,29.98,ESE,111,5.0,7.0,85,0.00,,,0.00,meteohub,2013-02-04 17:55:00,
2013-02-04 12:00:00,20.1,16.0,29.98,ESE,117,5.0,7.0,84,0.00,,,0.00,meteohub,2013-02-04 18:00:00,
2013-02-04 12:05:00,20.1,16.3,29.98,ESE,121,3.0,7.0,85,0.00,,,0.00,meteohub,2013-02-04 18:05:00,
2013-02-04 12:10:00,20.5,16.7,29.97,ESE,112,4.0,7.0,85,0.00,,,0.00,meteohub,2013-02-04 18:10:00,
2013-02-04 12:16:00,20.5,16.3,29.98,SE,146,3.0,7.0,84,0.00,,,0.00,meteohub,2013-02-04 18:16:00,
2013-02-04 12:21:00,20.5,16.3,29.97,SE,133,3.0,6.0,84,0.00,,,0.00,meteohub,2013-02-04 18:21:00,
2013-02-04 12:26:00,20.5,16.3,29.97,ESE,113,4.0,7.0,84,0.00,,,0.00,meteohub,2013-02-04 18:26:00,
2013-02-04 12:31:00,20.7,16.9,29.97,ESE,108,7.0,7.0,85,0.00,,,0.00,meteohub,2013-02-04 18:31:00,
2013-02-04 12:36:00,20.7,16.5,29.97,ESE,116,2.0,7.0,84,0.00,,,0.00,meteohub,2013-02-04 18:36:00,
2013-02-04 12:41:00,20.7,16.9,29.97,ESE,121,6.0,7.0,85,0.00,,,0.00,meteohub,2013-02-04 18:41:00,
2013-02-04 12:46:00,20.8,17.1,29.97,ESE,105,5.0,7.0,85,0.00,,,0.00,meteohub,2013-02-04 18:46:00,
2013-02-04 12:51:00,20.8,16.7,29.97,SE,130,3.0,7.0,84,0.00,,,0.00,meteohub,2013-02-04 18:51:00,
2013-02-04 12:56:00,20.8,17.1,29.96,ENE,77,5.0,7.0,85,0.00,,,0.00,meteohub,2013-02-04 18:56:00,
2013-02-04 13:01:00,21.0,17.2,29.96,ESE,111,5.0,7.0,85,0.00,,,0.00,meteohub,2013-02-04 19:01:00,
2013-02-04 13:06:00,20.8,17.1,29.96,SE,130,3.0,7.0,85,0.00,,,0.00,meteohub,2013-02-04 19:06:00,
2013-02-04 13:11:00,21.0,17.2,29.96,SE,126,3.0,7.0,85,0.00,,,0.00,meteohub,2013-02-04 19:11:00,
2013-02-04 13:16:00,21.0,17.2,29.96,SE,138,4.0,7.0,85,0.00,,,0.00,meteohub,2013-02-04 19:16:00,
2013-02-04 13:21:00,21.0,16.9,29.96,ESE,108,4.0,7.0,84,0.00,,,0.00,meteohub,2013-02-04 19:21:00,
2013-02-04 13:26:00,21.2,17.1,29.95,East,98,5.0,6.0,84,0.00,,,0.00,meteohub,2013-02-04 19:26:00,
2013-02-04 13:31:00,21.0,16.9,29.95,ESE,118,2.0,7.0,84,0.00,,,0.00,meteohub,2013-02-04 19:31:00,
2013-02-04 13:36:00,21.2,17.1,29.95,SE,138,2.0,7.0,84,0.00,,,0.00,meteohub,2013-02-04 19:36:00,
2013-02-04 13:41:00,21.4,17.2,29.95,SE,141,4.0,7.0,84,0.00,,,0.00,meteohub,2013-02-04 19:41:00,
2013-02-04 13:46:00,21.4,17.2,29.95,ESE,112,4.0,7.0,84,0.00,,,0.00,meteohub,2013-02-04 19:46:00,
2013-02-04 13:51:00,21.4,17.2,29.95,SE,125,1.0,7.0,84,0.00,,,0.00,meteohub,2013-02-04 19:51:00,
2013-02-04 13:56:00,21.4,17.2,29.94,SE,133,3.0,7.0,84,0.00,,,0.00,meteohub,2013-02-04 19:56:00,
2013-02-04 14:01:00,21.4,17.2,29.94,SE,134,4.0,7.0,84,0.00,,,0.00,meteohub,2013-02-04 20:01:00,
2013-02-04 14:06:00,21.4,17.2,29.94,ESE,112,0.0,6.0,84,0.00,,,0.00,meteohub,2013-02-04 20:06:00,
2013-02-04 14:11:00,21.6,17.2,29.95,SE,125,1.0,7.0,83,0.00,,,0.00,meteohub,2013-02-04 20:11:00,
2013-02-04 14:17:00,21.6,17.4,29.95,ESE,109,3.0,7.0,84,0.00,,,0.00,meteohub,2013-02-04 20:17:00,
2013-02-04 14:21:00,21.6,17.4,29.94,ESE,108,3.0,7.0,84,0.00,,,0.00,meteohub,2013-02-04 20:21:00,
2013-02-04 14:27:00,21.6,17.4,29.94,ENE,57,2.0,6.0,84,0.00,,,0.00,meteohub,2013-02-04 20:27:00,
2013-02-04 14:32:00,21.7,17.6,29.94,SE,126,1.0,6.0,84,0.00,,,0.00,meteohub,2013-02-04 20:32:00,
2013-02-04 14:37:00,21.7,17.4,29.94,NE,43,0.0,6.0,83,0.00,,,0.00,meteohub,2013-02-04 20:37:00,
2013-02-04 14:42:00,21.9,17.8,29.94,ESE,115,2.0,5.0,84,0.00,,,0.00,meteohub,2013-02-04 20:42:00,
2013-02-04 14:47:00,21.9,17.6,29.94,ESE,115,4.0,5.0,83,0.00,,,0.00,meteohub,2013-02-04 20:47:00,
2013-02-04 14:52:00,21.7,17.4,29.94,East,96,5.0,5.0,83,0.00,,,0.00,meteohub,2013-02-04 20:52:00,
2013-02-04 14:57:00,21.7,17.4,29.94,ENE,65,2.0,5.0,83,0.00,,,0.00,meteohub,2013-02-04 20:57:00,
2013-02-04 15:02:00,21.7,17.6,29.94,ESE,116,2.0,5.0,84,0.00,,,0.00,meteohub,2013-02-04 21:02:00,
2013-02-04 15:07:00,21.6,17.2,29.94,ESE,119,2.0,5.0,83,0.00,,,0.00,meteohub,2013-02-04 21:07:00,
2013-02-04 15:12:00,21.7,17.6,29.94,ESE,118,3.0,4.0,84,0.00,,,0.00,meteohub,2013-02-04 21:12:00,
2013-02-04 15:17:00,21.7,17.6,29.94,East,87,1.0,4.0,84,0.00,,,0.00,meteohub,2013-02-04 21:17:00,
2013-02-04 15:22:00,21.7,17.6,29.94,ESE,108,2.0,4.0,84,0.00,,,0.00,meteohub,2013-02-04 21:22:00,
2013-02-04 15:27:00,21.6,17.2,29.94,SSE,150,2.0,4.0,83,0.00,,,0.00,meteohub,2013-02-04 21:27:00,
2013-02-04 15:32:00,21.6,17.4,29.94,ESE,108,3.0,4.0,84,0.00,,,0.00,meteohub,2013-02-04 21:32:00,
2013-02-04 15:37:00,21.6,17.4,29.94,ESE,121,2.0,4.0,84,0.00,,,0.00,meteohub,2013-02-04 21:37:00,
2013-02-04 15:42:00,21.6,17.4,29.94,SE,143,1.0,4.0,84,0.00,,,0.00,meteohub,2013-02-04 21:42:00,
2013-02-04 15:47:00,21.6,17.4,29.94,SE,138,1.0,4.0,84,0.00,,,0.00,meteohub,2013-02-04 21:47:00,
2013-02-04 15:52:00,21.6,17.4,29.94,SE,130,1.0,3.0,84,0.00,,,0.00,meteohub,2013-02-04 21:52:00,
2013-02-04 15:57:00,21.6,17.4,29.93,East,96,2.0,3.0,84,0.00,,,0.00,meteohub,2013-02-04 21:57:00,
2013-02-04 16:02:00,21.6,17.4,29.93,ESE,121,1.0,4.0,84,0.00,,,0.00,meteohub,2013-02-04 22:02:00,
2013-02-04 16:07:00,21.4,17.2,29.93,ESE,107,2.0,4.0,84,0.00,,,0.00,meteohub,2013-02-04 22:07:00,
2013-02-04 16:12:00,21.4,17.2,29.93,ESE,102,2.0,3.0,84,0.00,,,0.00,meteohub,2013-02-04 22:12:00,
2013-02-04 16:17:00,21.4,17.2,29.93,ESE,117,2.0,3.0,84,0.00,,,0.00,meteohub,2013-02-04 22:17:00,
2013-02-04 16:22:00,21.2,17.4,29.93,SE,143,1.0,3.0,85,0.00,,,0.00,meteohub,2013-02-04 22:22:00,
2013-02-04 16:27:00,21.2,17.4,29.93,SE,129,2.0,2.0,85,0.00,,,0.00,meteohub,2013-02-04 22:27:00,
2013-02-04 16:32:00,21.2,17.4,29.93,ESE,121,3.0,3.0,85,0.00,,,0.00,meteohub,2013-02-04 22:32:00,
2013-02-04 16:37:00,21.0,17.2,29.93,East,96,1.0,3.0,85,0.00,,,0.00,meteohub,2013-02-04 22:37:00,
2013-02-04 16:42:00,21.0,17.4,29.93,SE,133,2.0,3.0,86,0.00,,,0.00,meteohub,2013-02-04 22:42:00,
2013-02-04 16:47:00,21.0,17.4,29.93,ESE,106,3.0,3.0,86,0.00,,,0.00,meteohub,2013-02-04 22:47:00,
2013-02-04 16:52:00,20.8,17.2,29.93,ESE,109,2.0,3.0,86,0.00,,,0.00,meteohub,2013-02-04 22:52:00,
2013-02-04 16:57:00,20.8,17.2,29.93,SE,127,3.0,4.0,86,0.00,,,0.00,meteohub,2013-02-04 22:57:00,
2013-02-04 17:02:00,20.8,17.2,29.93,ESE,113,1.0,4.0,86,0.00,,,0.00,meteohub,2013-02-04 23:02:00,
2013-02-04 17:07:00,20.8,17.2,29.93,ESE,112,0.0,4.0,86,0.00,,,0.00,meteohub,2013-02-04 23:07:00,
2013-02-04 17:12:00,20.7,17.1,29.93,East,89,0.0,3.0,86,0.00,,,0.00,meteohub,2013-02-04 23:12:00,
2013-02-04 17:17:00,20.7,17.4,29.93,East,89,0.0,1.0,87,0.00,,,0.00,meteohub,2013-02-04 23:17:00,
2013-02-04 17:22:00,20.5,17.2,29.93,East,89,0.0,0.0,87,0.00,,,0.00,meteohub,2013-02-04 23:22:00,
2013-02-04 17:27:00,20.5,17.2,29.93,East,89,0.0,0.0,87,0.00,,,0.00,meteohub,2013-02-04 23:27:00,
2013-02-04 17:32:00,20.5,17.2,29.93,ESE,106,0.0,0.0,87,0.00,,,0.00,meteohub,2013-02-04 23:32:00,
2013-02-04 17:37:00,20.5,17.2,29.93,ESE,106,0.0,0.0,87,0.00,,,0.00,meteohub,2013-02-04 23:37:00,
2013-02-04 17:42:00,20.3,17.1,29.93,ESE,106,0.0,0.0,87,0.00,,,0.00,meteohub,2013-02-04 23:42:00,
2013-02-04 17:47:00,20.1,16.9,29.94,ESE,106,0.0,0.0,87,0.00,,,0.00,meteohub,2013-02-04 23:47:00,
2013-02-04 17:52:00,20.1,17.1,29.94,ESE,105,0.0,0.0,88,0.00,,,0.00,meteohub,2013-02-04 23:52:00,
2013-02-04 17:57:00,20.1,17.1,29.94,ESE,106,0.0,0.0,88,0.00,,,0.00,meteohub,2013-02-04 23:57:00,
2013-02-04 18:02:00,20.1,17.1,29.94,ESE,106,0.0,0.0,88,0.00,,,0.00,meteohub,2013-02-05 00:02:00,
2013-02-04 18:07:00,20.1,17.1,29.94,ESE,106,0.0,0.0,88,0.00,,,0.00,meteohub,2013-02-05 00:07:00,
2013-02-04 18:12:00,20.1,17.1,29.94,ESE,106,0.0,0.0,88,0.00,,,0.00,meteohub,2013-02-05 00:12:00,
2013-02-04 18:17:00,19.9,16.9,29.94,ESE,106,0.0,0.0,88,0.00,,,0.00,meteohub,2013-02-05 00:17:00,
2013-02-04 18:22:00,19.9,16.9,29.94,ESE,107,0.0,0.0,88,0.00,,,0.00,meteohub,2013-02-05 00:22:00,
2013-02-04 18:28:00,19.9,17.2,29.94,ESE,107,0.0,0.0,89,0.00,,,0.00,meteohub,2013-02-05 00:28:00,
2013-02-04 18:33:00,19.9,17.2,29.94,ESE,107,0.0,0.0,89,0.00,,,0.00,meteohub,2013-02-05 00:33:00,
2013-02-04 18:38:00,19.8,17.1,29.95,ESE,106,0.0,0.0,89,0.00,,,0.00,meteohub,2013-02-05 00:38:00,
2013-02-04 18:43:00,19.8,17.1,29.95,ESE,106,0.0,0.0,89,0.00,,,0.00,meteohub,2013-02-05 00:43:00,
2013-02-04 18:48:00,19.6,16.9,29.95,ESE,105,0.0,0.0,89,0.00,,,0.00,meteohub,2013-02-05 00:48:00,
2013-02-04 18:53:00,19.6,16.9,29.96,ESE,106,0.0,0.0,89,0.00,,,0.00,meteohub,2013-02-05 00:53:00,
2013-02-04 18:58:00,19.6,16.9,29.96,ESE,106,0.0,0.0,89,0.00,,,0.00,meteohub,2013-02-05 00:58:00,
2013-02-04 19:03:00,19.6,17.1,29.96,ESE,106,0.0,0.0,90,0.00,,,0.00,meteohub,2013-02-05 01:03:00,
2013-02-04 19:08:00,19.6,17.1,29.96,ESE,106,0.0,0.0,90,0.00,,,0.00,meteohub,2013-02-05 01:08:00,
2013-02-04 19:13:00,19.6,17.1,29.96,ESE,105,0.0,0.0,90,0.00,,,0.00,meteohub,2013-02-05 01:13:00,
2013-02-04 19:18:00,19.6,17.1,29.96,ESE,106,0.0,0.0,90,0.00,,,0.00,meteohub,2013-02-05 01:18:00,
2013-02-04 19:23:00,19.6,17.1,29.97,ESE,106,0.0,0.0,90,0.00,,,0.00,meteohub,2013-02-05 01:23:00,
2013-02-04 19:28:00,19.6,17.1,29.96,ESE,105,0.0,0.0,90,0.00,,,0.00,meteohub,2013-02-05 01:28:00,
2013-02-04 19:33:00,19.6,17.1,29.97,ESE,106,0.0,0.0,90,0.00,,,0.00,meteohub,2013-02-05 01:33:00,
2013-02-04 19:38:00,19.4,16.9,29.96,ESE,106,0.0,0.0,90,0.00,,,0.00,meteohub,2013-02-05 01:38:00,
2013-02-04 19:43:00,19.4,16.9,29.96,ESE,106,0.0,0.0,90,0.00,,,0.00,meteohub,2013-02-05 01:43:00,
2013-02-04 19:48:00,19.4,16.9,29.96,ESE,106,0.0,0.0,90,0.00,,,0.00,meteohub,2013-02-05 01:48:00,
2013-02-04 19:53:00,19.4,16.9,29.97,ESE,106,0.0,0.0,90,0.00,,,0.00,meteohub,2013-02-05 01:53:00,
2013-02-04 19:58:00,19.4,17.2,29.97,ESE,106,0.0,0.0,91,0.00,,,0.00,meteohub,2013-02-05 01:58:00,
2013-02-04 20:03:00,19.6,17.4,29.97,ESE,106,0.0,0.0,91,0.00,,,0.00,meteohub,2013-02-05 02:03:00,
2013-02-04 20:08:00,19.6,17.4,29.97,ESE,106,0.0,0.0,91,0.00,,,0.00,meteohub,2013-02-05 02:08:00,
2013-02-04 20:13:00,19.6,17.4,29.98,ESE,105,0.0,0.0,91,0.00,,,0.00,meteohub,2013-02-05 02:13:00,
2013-02-04 20:18:00,19.6,17.4,29.97,ESE,106,0.0,0.0,91,0.00,,,0.00,meteohub,2013-02-05 02:18:00,
2013-02-04 20:23:00,19.8,17.6,29.98,East,96,0.0,0.0,91,0.00,,,0.00,meteohub,2013-02-05 02:23:00,
2013-02-04 20:28:00,19.8,17.6,29.98,East,92,0.0,0.0,91,0.00,,,0.00,meteohub,2013-02-05 02:28:00,
2013-02-04 20:33:00,19.8,17.6,29.98,East,92,0.0,0.0,91,0.00,,,0.00,meteohub,2013-02-05 02:33:00,
2013-02-04 20:38:00,19.8,17.6,29.98,East,100,0.0,0.0,91,0.00,,,0.00,meteohub,2013-02-05 02:38:00,
2013-02-04 20:43:00,19.6,17.4,29.98,ENE,70,0.0,0.0,91,0.00,,,0.00,meteohub,2013-02-05 02:43:00,
2013-02-04 20:48:00,19.6,17.4,29.97,ENE,77,0.0,0.0,91,0.00,,,0.00,meteohub,2013-02-05 02:48:00,
2013-02-04 20:53:00,19.6,17.4,29.97,ESE,118,1.0,0.0,91,0.00,,,0.00,meteohub,2013-02-05 02:53:00,
2013-02-04 20:58:00,19.4,17.2,29.97,ESE,122,1.0,2.0,91,0.00,,,0.00,meteohub,2013-02-05 02:58:00,
2013-02-04 21:03:00,19.4,17.2,29.97,East,82,3.0,3.0,91,0.00,,,0.00,meteohub,2013-02-05 03:03:00,
2013-02-04 21:08:00,19.2,17.1,29.97,East,96,1.0,3.0,91,0.00,,,0.00,meteohub,2013-02-05 03:08:00,
2013-02-04 21:13:00,19.2,17.1,29.97,East,95,0.0,3.0,91,0.00,,,0.00,meteohub,2013-02-05 03:13:00,
2013-02-04 21:18:00,19.2,17.1,29.97,ENE,70,1.0,3.0,91,0.00,,,0.00,meteohub,2013-02-05 03:18:00,
2013-02-04 21:23:00,19.0,16.9,29.97,ENE,77,1.0,1.0,91,0.00,,,0.00,meteohub,2013-02-05 03:23:00,
2013-02-04 21:29:00,19.0,16.9,29.96,East,79,1.0,3.0,91,0.00,,,0.00,meteohub,2013-02-05 03:29:00,
2013-02-04 21:34:00,19.0,16.9,29.96,ENE,59,0.0,3.0,91,0.00,,,0.00,meteohub,2013-02-05 03:34:00,
2013-02-04 21:39:00,19.0,16.9,29.96,ESE,116,0.0,3.0,91,0.00,,,0.00,meteohub,2013-02-05 03:39:00,
2013-02-04 21:44:00,18.9,16.7,29.96,ENE,63,1.0,2.0,91,0.00,,,0.00,meteohub,2013-02-05 03:44:00,
2013-02-04 21:49:00,18.9,16.3,29.96,ESE,117,1.0,4.0,90,0.00,,,0.00,meteohub,2013-02-05 03:49:00,
2013-02-04 21:54:00,18.9,16.3,29.96,East,84,1.0,5.0,90,0.00,,,0.00,meteohub,2013-02-05 03:54:00,
2013-02-04 21:59:00,18.9,16.3,29.96,ESE,109,1.0,5.0,90,0.00,,,0.00,meteohub,2013-02-05 03:59:00,
2013-02-04 22:04:00,18.7,16.2,29.96,ENE,75,0.0,4.0,90,0.00,,,0.00,meteohub,2013-02-05 04:04:00,
2013-02-04 22:09:00,18.7,16.2,29.96,ENE,75,0.0,3.0,90,0.00,,,0.00,meteohub,2013-02-05 04:09:00,
2013-02-04 22:14:00,18.7,16.2,29.96,ESE,102,0.0,3.0,90,0.00,,,0.00,meteohub,2013-02-05 04:14:00,
2013-02-04 22:17:00,18.7,16.2,29.96,SE,129,0.0,2.0,90,0.00,,,0.00,meteohub,2013-02-05 04:17:00,
2013-02-04 22:22:00,18.7,16.2,29.97,East,101,0.0,2.0,90,0.00,,,0.00,meteohub,2013-02-05 04:22:00,
2013-02-04 22:27:00,18.7,16.2,29.97,East,101,0.0,2.0,90,0.00,,,0.00,meteohub,2013-02-05 04:27:00,
2013-02-04 22:32:00,18.5,16.0,29.97,East,100,0.0,2.0,90,0.00,,,0.00,meteohub,2013-02-05 04:32:00,
2013-02-04 22:37:00,18.5,16.0,29.98,East,100,0.0,0.0,90,0.00,,,0.00,meteohub,2013-02-05 04:37:00,
2013-02-04 22:42:00,18.5,16.0,29.98,East,101,0.0,0.0,90,0.00,,,0.00,meteohub,2013-02-05 04:42:00,
2013-02-04 22:47:00,18.5,16.0,29.98,East,100,0.0,0.0,90,0.00,,,0.00,meteohub,2013-02-05 04:47:00,
2013-02-04 22:52:00,18.5,16.0,29.99,East,100,0.0,0.0,90,0.00,,,0.00,meteohub,2013-02-05 04:52:00,
2013-02-04 22:57:00,18.7,16.2,29.99,East,101,0.0,0.0,90,0.00,,,0.00,meteohub,2013-02-05 04:57:00,
2013-02-04 23:00:00,18.5,16.0,29.99,East,101,0.0,0.0,90,0.00,,,0.00,meteohub,2013-02-05 05:00:00,
2013-02-04 23:06:00,18.5,16.0,29.99,East,100,0.0,0.0,90,0.00,,,0.00,meteohub,2013-02-05 05:06:00,
2013-02-04 23:11:00,18.5,16.0,29.99,East,100,0.0,0.0,90,0.00,,,0.00,meteohub,2013-02-05 05:11:00,
2013-02-04 23:16:00,18.5,16.0,29.99,East,100,0.0,0.0,90,0.00,,,0.00,meteohub,2013-02-05 05:16:00,
2013-02-04 23:21:00,18.5,16.0,29.99,East,100,0.0,0.0,90,0.00,,,0.00,meteohub,2013-02-05 05:21:00,
2013-02-04 23:26:00,18.5,16.0,29.99,East,101,0.0,0.0,90,0.00,,,0.00,meteohub,2013-02-05 05:26:00,
2013-02-04 23:31:00,18.5,16.0,29.99,East,101,0.0,0.0,90,0.00,,,0.00,meteohub,2013-02-05 05:31:00,
2013-02-04 23:36:00,18.5,16.0,29.98,East,101,0.0,0.0,90,0.00,,,0.00,meteohub,2013-02-05 05:36:00,
2013-02-04 23:41:00,18.5,16.0,29.98,East,101,0.0,0.0,90,0.00,,,0.00,meteohub,2013-02-05 05:41:00,
2013-02-04 23:46:00,18.5,16.0,29.98,East,101,0.0,0.0,90,0.00,,,0.00,meteohub,2013-02-05 05:46:00,
2013-02-04 23:51:00,18.3,15.8,29.98,East,101,0.0,0.0,90,0.00,,,0.00,meteohub,2013-02-05 05:51:00,
2013-02-04 23:56:00,18.3,15.8,29.98,East,100,0.0,0.0,90,0.00,,,0.00,meteohub,2013-02-05 05:56:00,